TimeCDT,TemperatureF,Dew PointF,Humidity,Sea Level PressureIn,VisibilityMPH,Wind Direction,Wind SpeedMPH,Gust SpeedMPH,PrecipitationIn,Events,Conditions,WindDirDegrees,DateUTC
12:11 AM,30.2,23.0,75,29.97,10.0,NNW,13.8,19.6,N/A,,Clear,330,2014-03-12 05:11:00
12:31 AM,28.4,23.0,80,29.98,10.0,NNW,12.7,21.9,N/A,,Clear,330,2014-03-12 05:31:00
12:50 AM,28.4,23.0,80,29.98,10.0,NNW,15.0,20.7,N/A,,Clear,340,2014-03-12 05:50:00
1:11 AM,28.4,21.2,74,29.98,10.0,NNW,13.8,19.6,N/A,,Clear,340,2014-03-12 06:11:00
1:31 AM,28.4,21.2,74,29.99,10.0,NNW,12.7,19.6,N/A,,Clear,330,2014-03-12 06:31:00
1:50 AM,28.4,21.2,74,29.99,10.0,NNW,11.5,19.6,N/A,,Clear,330,2014-03-12 06:50:00
2:11 AM,26.6,21.2,80,29.99,10.0,NNW,11.5,19.6,N/A,,Clear,330,2014-03-12 07:11:00
2:31 AM,26.6,21.2,80,29.99,10.0,NNW,13.8,21.9,N/A,,Clear,330,2014-03-12 07:31:00
2:50 AM,26.6,21.2,80,29.99,10.0,NNW,12.7,18.4,N/A,,Clear,330,2014-03-12 07:50:00
3:11 AM,24.8,19.4,80,29.99,10.0,NNW,12.7,17.3,N/A,,Clear,330,2014-03-12 08:11:00
3:31 AM,24.8,19.4,80,29.99,10.0,NW,13.8,19.6,N/A,,Clear,320,2014-03-12 08:31:00
3:51 AM,24.8,19.4,80,29.99,10.0,NW,10.4,21.9,N/A,,Clear,320,2014-03-12 08:51:00
4:11 AM,24.8,19.4,80,30.00,10.0,NW,12.7,19.6,N/A,,Clear,320,2014-03-12 09:11:00
4:30 AM,24.8,17.6,74,30.00,10.0,NW,12.7,19.6,N/A,,Clear,320,2014-03-12 09:30:00
4:50 AM,23.0,17.6,80,30.01,10.0,NW,11.5,17.3,N/A,,Clear,320,2014-03-12 09:50:00
5:11 AM,23.0,17.6,80,30.02,10.0,NNW,15.0,18.4,N/A,,Clear,330,2014-03-12 10:11:00
5:31 AM,21.2,17.6,86,30.02,10.0,NW,10.4,18.4,N/A,,Clear,320,2014-03-12 10:31:00
5:50 AM,21.2,17.6,86,30.03,10.0,NW,12.7,16.1,N/A,,Clear,320,2014-03-12 10:50:00
6:11 AM,21.2,15.8,80,30.03,10.0,NNW,10.4,18.4,N/A,,Clear,330,2014-03-12 11:11:00
6:30 AM,21.2,15.8,80,30.03,10.0,NW,9.2,-,N/A,,Clear,320,2014-03-12 11:30:00
6:51 AM,19.4,14.0,80,30.04,10.0,NW,9.2,-,N/A,,Clear,310,2014-03-12 11:51:00
7:10 AM,19.4,14.0,80,30.04,10.0,NW,10.4,-,N/A,,Clear,320,2014-03-12 12:10:00
7:31 AM,19.4,14.0,80,30.05,10.0,NW,9.2,16.1,N/A,,Clear,310,2014-03-12 12:31:00
7:51 AM,19.4,12.2,74,30.05,10.0,NW,10.4,17.3,N/A,,Clear,320,2014-03-12 12:51:00
8:10 AM,19.4,12.2,74,30.05,10.0,NW,12.7,17.3,N/A,,Clear,320,2014-03-12 13:10:00
8:31 AM,19.4,12.2,74,30.07,10.0,NW,9.2,16.1,N/A,,Clear,320,2014-03-12 13:31:00
8:51 AM,19.4,12.2,74,30.07,10.0,NW,13.8,19.6,N/A,,Clear,320,2014-03-12 13:51:00
9:10 AM,19.4,12.2,74,30.07,10.0,NNW,16.1,23.0,N/A,,Clear,330,2014-03-12 14:10:00
9:31 AM,19.4,12.2,74,30.08,10.0,NNW,13.8,23.0,N/A,,Clear,330,2014-03-12 14:31:00
9:50 AM,19.4,12.2,74,30.09,10.0,NNW,15.0,21.9,N/A,,Clear,340,2014-03-12 14:50:00
10:11 AM,19.4,12.2,74,30.09,10.0,NNW,10.4,19.6,N/A,,Clear,340,2014-03-12 15:11:00
10:31 AM,21.2,12.2,68,30.10,10.0,NNW,10.4,18.4,N/A,,Clear,340,2014-03-12 15:31:00
10:50 AM,21.2,12.2,68,30.09,10.0,NNW,9.2,-,N/A,,Clear,330,2014-03-12 15:50:00
11:11 AM,21.2,14.0,74,30.09,10.0,NNW,10.4,-,N/A,,Clear,330,2014-03-12 16:11:00
11:31 AM,21.2,14.0,74,30.09,10.0,North,9.2,-,N/A,,Clear,350,2014-03-12 16:31:00
11:50 AM,21.2,15.8,80,30.09,10.0,North,8.1,-,N/A,,Clear,350,2014-03-12 16:50:00
12:11 PM,21.2,15.8,80,30.10,10.0,NNW,8.1,-,N/A,,Clear,330,2014-03-12 17:11:00
12:31 PM,23.0,15.8,74,30.10,10.0,NW,8.1,-,N/A,,Clear,320,2014-03-12 17:31:00
12:50 PM,23.0,15.8,74,30.09,10.0,NNW,8.1,-,N/A,,Clear,330,2014-03-12 17:50:00
1:11 PM,24.8,15.8,69,30.09,10.0,NW,8.1,-,N/A,,Clear,320,2014-03-12 18:11:00
1:31 PM,24.8,15.8,69,30.09,10.0,NW,5.8,-,N/A,,Clear,320,2014-03-12 18:31:00
1:50 PM,24.8,15.8,69,30.09,10.0,NW,8.1,-,N/A,,Scattered Clouds,320,2014-03-12 18:50:00
2:11 PM,24.8,15.8,69,30.09,10.0,NW,8.1,-,N/A,,Scattered Clouds,310,2014-03-12 19:11:00
2:31 PM,26.6,17.6,69,30.09,10.0,NW,8.1,-,N/A,,Clear,310,2014-03-12 19:31:00
2:50 PM,26.6,15.8,64,30.08,10.0,WNW,10.4,-,N/A,,Clear,290,2014-03-12 19:50:00
3:11 PM,26.6,17.6,69,30.08,10.0,NW,8.1,-,N/A,,Clear,320,2014-03-12 20:11:00
3:31 PM,26.6,17.6,69,30.08,10.0,NNW,10.4,-,N/A,,Clear,330,2014-03-12 20:31:00
3:50 PM,26.6,17.6,69,30.08,10.0,NNW,6.9,17.3,N/A,,Clear,330,2014-03-12 20:50:00
4:11 PM,26.6,17.6,69,30.07,10.0,WNW,9.2,-,N/A,,Clear,290,2014-03-12 21:11:00
4:31 PM,26.6,17.6,69,30.07,10.0,WNW,10.4,-,N/A,,Clear,290,2014-03-12 21:31:00
4:50 PM,26.6,15.8,64,30.07,10.0,NW,6.9,-,N/A,,Clear,320,2014-03-12 21:50:00
5:11 PM,26.6,15.8,64,30.07,10.0,WNW,5.8,-,N/A,,Mostly Cloudy,300,2014-03-12 22:11:00
5:31 PM,26.6,15.8,64,30.07,10.0,NW,8.1,-,N/A,,Overcast,310,2014-03-12 22:31:00
5:50 PM,26.6,15.8,64,30.07,10.0,NW,4.6,-,N/A,,Overcast,310,2014-03-12 22:50:00
6:11 PM,26.6,17.6,69,30.07,10.0,WNW,4.6,-,N/A,,Overcast,300,2014-03-12 23:11:00
6:31 PM,26.6,17.6,69,30.07,10.0,WNW,4.6,-,N/A,,Overcast,290,2014-03-12 23:31:00
6:50 PM,26.6,17.6,69,30.08,10.0,NW,4.6,-,N/A,,Overcast,310,2014-03-12 23:50:00
7:11 PM,26.6,17.6,69,30.09,10.0,NW,3.5,-,N/A,,Overcast,310,2014-03-13 00:11:00
7:31 PM,26.6,17.6,69,30.08,10.0,Calm,Calm,-,N/A,,Overcast,0,2014-03-13 00:31:00
7:50 PM,26.6,17.6,69,30.08,10.0,Calm,Calm,-,N/A,,Overcast,0,2014-03-13 00:50:00
8:11 PM,26.6,17.6,69,30.08,10.0,NW,3.5,-,N/A,,Overcast,320,2014-03-13 01:11:00
8:31 PM,26.6,17.6,69,30.08,10.0,Calm,Calm,-,N/A,,Overcast,0,2014-03-13 01:31:00
8:50 PM,24.8,19.4,80,30.08,10.0,Calm,Calm,-,N/A,,Overcast,0,2014-03-13 01:50:00
9:11 PM,24.8,17.6,74,30.08,10.0,Calm,Calm,-,N/A,,Mostly Cloudy,0,2014-03-13 02:11:00
9:31 PM,24.8,17.6,74,30.07,10.0,Calm,Calm,-,N/A,,Mostly Cloudy,0,2014-03-13 02:31:00
9:50 PM,24.8,17.6,74,30.06,10.0,Calm,Calm,-,N/A,,Overcast,0,2014-03-13 02:50:00
10:10 PM,24.8,17.6,74,30.06,10.0,Calm,Calm,-,N/A,,Overcast,0,2014-03-13 03:10:00
10:31 PM,24.8,17.6,74,30.06,10.0,Calm,Calm,-,N/A,,Scattered Clouds,0,2014-03-13 03:31:00
10:50 PM,24.8,17.6,74,30.05,10.0,Calm,Calm,-,N/A,,Clear,0,2014-03-13 03:50:00
11:10 PM,23.0,17.6,80,30.05,10.0,Calm,Calm,-,N/A,,Clear,0,2014-03-13 04:10:00
11:31 PM,21.2,15.8,80,30.04,10.0,SSE,4.6,-,N/A,,Clear,160,2014-03-13 04:31:00
11:50 PM,21.2,15.8,80,30.03,10.0,SE,5.8,-,N/A,,Clear,140,2014-03-13 04:50:00